Location: Newark
(13.6797°N, 8.5297°E)
Time: 21:31:51
(UTC+00:00)

Courier 1B Rocket - Pass Details

Date: 26 January 2020
Orbit: 920 x 1202 km, 28.2° (Epoch: 19 February)

Event Time Altitude Azimuth Distance (km) Brightness Sun altitude
Rises 07:50:25 0° 237° (WSW) 4,090 8.0 25.2°
Reaches altitude 10° 07:53:18 10° 235° (SW) 3,119 7.5 25.8°
Maximum altitude 08:01:05 73° 152° (SSE) 1,209 6.3 27.4°
Drops below altitude 10° 08:08:29 10° 68° (ENE) 2,981 8.2 29.0°
Sets 08:11:11 0° 67° (ENE) 3,900 8.6 29.5°
